FW1310 Weather Reports


Display with metric or nautical units.
time (UTC)temp
F
wind
direction
speed
MPH
gust
MPH
rain 1hr
in
rain 24hr
in
rain mn
in
humidity
%
barometer
mb
20260906143003 82 80 1.0 1.0 0.00 0.00 0.00 79 998.8
20260906142503 82 131 1.0 1.0 0.00 0.00 0.00 80 998.5
20260906142004 81 131 1.0 2.0 0.00 0.00 0.00 80 998.5
20260906141504 81 125 1.0 2.0 0.00 0.00 0.00 80 998.5
20260906141003 81 139 1.0 2.0 0.00 0.00 0.00 81 998.4
20260906140504 81 161 2.0 3.0 0.00 0.00 0.00 81 998.5
20260906140004 81 135 1.0 2.0 0.00 0.00 0.00 82 998.5
20260906135504 80 134 1.0 2.0 0.00 0.00 0.00 82 998.6
20260906135004 81 135 0.0 1.0 0.00 0.00 0.00 82 998.5
20260906134504 80 117 1.0 1.0 0.00 0.00 0.00 82 998.3
20260906133503 80 113 1.0 2.0 0.00 0.00 0.00 83 998.3
20260906133004 80 150 1.0 3.0 0.00 0.00 0.00 83 998.3
20260906132504 80 136 1.0 1.0 0.00 0.00 0.00 83 998.1
20260906132003 80 109 1.0 1.0 0.00 0.00 0.00 83 998.0
20260906131504 80 126 0.0 0.0 0.00 0.00 0.00 84 997.9
20260906131004 79 146 0.0 1.0 0.00 0.00 0.00 84 998.0
20260906130504 79 145 1.0 1.0 0.00 0.00 0.00 84 997.8
20260906130004 79 144 0.0 0.0 0.00 0.00 0.00 84 997.8
20260906125504 79 144 0.0 1.0 0.00 0.00 0.00 84 998.0
20260906125004 79 144 1.0 1.0 0.00 0.00 0.00 84 997.8
20260906124504 79 144 0.0 1.0 0.00 0.00 0.00 84 997.8
20260906124004 78 141 1.0 1.0 0.00 0.00 0.00 85 997.5
20260906123003 78 127 0.0 0.0 0.00 0.00 0.00 85 997.4
20260906122504 78 127 0.0 0.0 0.00 0.00 0.00 85 997.2
20260906121503 78 127 0.0 0.0 0.00 0.00 0.00 85 997.0
20260906121003 77 115 0.0 0.0 0.00 0.00 0.00 85 996.9
20260906120503 77 115 0.0 0.0 0.00 0.00 0.00 85 997.0
20260906115504 77 115 0.0 0.0 0.00 0.00 0.00 85 996.7
20260906115004 77 115 0.0 0.0 0.00 0.00 0.00 85 996.7
20260906114003 77 135 0.0 0.0 0.00 0.00 0.00 85 996.5
20260906113503 78 135 0.0 0.0 0.00 0.00 0.00 85 996.6
20260906113003 77 135 0.0 0.0 0.00 0.00 0.00 84 996.4
20260906111502 78 135 0.0 0.0 0.00 0.00 0.00 83 996.6
20260906111003 78 135 0.0 1.0 0.00 0.00 0.00 83 996.4
20260906110503 79 139 0.0 1.0 0.00 0.00 0.00 82 996.3
20260906110002 79 144 0.0 1.0 0.00 0.00 0.00 82 996.5
20260906105503 79 139 0.0 1.0 0.00 0.00 0.00 82 996.4
20260906104502 79 240 1.0 2.0 0.00 0.00 0.00 81 996.5
20260906104003 79 207 1.0 2.0 0.00 0.00 0.00 81 996.3
20260906103502 79 163 1.0 1.0 0.00 0.00 0.00 81 996.3
20260906103002 79 200 1.0 3.0 0.00 0.00 0.00 81 996.3
20260906102503 79 243 1.0 3.0 0.00 0.00 0.00 81 996.3
20260906102002 79 283 1.0 1.0 0.00 0.00 0.00 81 996.3
20260906101503 80 142 1.0 2.0 0.00 0.00 0.00 81 996.1
20260906100502 80 160 2.0 2.0 0.00 0.00 0.00 80 996.1
20260906100003 80 148 1.0 2.0 0.00 0.00 0.00 80 996.1
20260906095503 80 139 1.0 2.0 0.00 0.00 0.00 80 996.0
20260906095002 80 150 1.0 2.0 0.00 0.00 0.00 80 996.0
20260906094503 80 135 1.0 2.0 0.00 0.00 0.00 80 996.1
20260906094003 80 150 1.0 2.0 0.00 0.00 0.00 80 996.2
20260906093503 80 140 1.0 1.0 0.00 0.00 0.00 80 996.1
20260906093003 80 128 0.0 3.0 0.00 0.00 0.00 79 996.1
20260906092502 80 202 1.0 3.0 0.00 0.00 0.00 79 996.0
20260906091502 80 130 1.0 3.0 0.00 0.00 0.00 79 996.0
20260906090003 80 183 2.0 5.0 0.00 0.00 0.00 80 996.2
20260906085502 81 153 2.0 3.0 0.00 0.00 0.00 80 996.1
20260906085003 81 257 1.0 2.0 0.00 0.00 0.00 80 996.2
20260906084503 81 146 1.0 1.0 0.00 0.00 0.00 80 996.1
20260906084003 81 149 0.0 1.0 0.00 0.00 0.00 80 996.2
20260906083503 81 148 1.0 2.0 0.00 0.00 0.00 79 996.0
20260906083002 81 125 1.0 1.0 0.00 0.00 0.00 79 996.1
20260906082503 82 148 2.0 5.0 0.00 0.00 0.00 79 996.2
20260906082003 82 193 2.0 5.0 0.00 0.00 0.00 78 996.0
20260906081502 82 159 2.0 6.0 0.00 0.00 0.00 78 996.1
20260906081003 82 156 2.0 6.0 0.00 0.00 0.00 78 996.1
20260906080002 82 196 5.0 7.0 0.00 0.00 0.00 78 996.3
20260906075503 82 164 1.0 5.0 0.00 0.00 0.00 78 996.3
20260906075002 82 256 2.0 6.0 0.00 0.00 0.00 78 996.5
20260906074502 82 226 5.0 7.0 0.00 0.00 0.00 78 996.3
20260906074003 82 195 3.0 5.0 0.00 0.00 0.00 78 996.5
20260906073502 82 168 3.0 6.0 0.00 0.00 0.00 78 996.3
20260906073002 82 188 4.0 8.0 0.00 0.00 0.00 77 996.6
20260906072503 82 188 5.0 8.0 0.00 0.00 0.00 77 996.5
20260906072002 82 199 3.0 6.0 0.00 0.00 0.00 77 996.7
20260906071502 82 159 2.0 5.0 0.00 0.00 0.00 77 996.7
20260906071003 83 167 2.0 6.0 0.00 0.00 0.00 77 996.7
20260906070003 83 205 3.0 8.0 0.00 0.00 0.00 76 996.7
20260906065502 83 273 4.0 8.0 0.00 0.00 0.00 76 996.8
20260906065003 83 160 2.0 5.0 0.00 0.00 0.00 76 997.0
20260906064503 83 209 2.0 3.0 0.00 0.00 0.00 76 997.0
20260906063003 83 184 2.0 8.0 0.00 0.00 0.00 75 997.0
20260906062502 83 164 6.0 9.0 0.00 0.00 0.00 75 996.8
20260906061503 83 169 4.0 8.0 0.00 0.00 0.00 75 996.9
20260906061002 83 171 5.0 8.0 0.00 0.00 0.00 75 997.1
20260906060503 83 204 2.0 6.0 0.00 0.00 0.00 74 997.2
20260906060002 84 195 3.0 5.0 0.00 0.00 0.00 74 997.1
20260906055503 84 223 3.0 5.0 0.00 0.00 0.00 74 997.2
20260906055003 84 164 3.0 3.0 0.00 0.00 0.00 74 997.1
20260906054502 83 215 2.0 6.0 0.00 0.00 0.00 74 997.4
20260906054002 83 174 2.0 5.0 0.00 0.00 0.00 74 997.0
20260906053503 83 165 3.0 5.0 0.00 0.00 0.00 74 997.1
20260906053002 83 149 3.0 5.0 0.00 0.00 0.00 74 997.2
20260906052503 83 140 2.0 5.0 0.00 0.00 0.00 74 997.1
20260906052002 83 162 2.0 3.0 0.00 0.00 0.00 74 997.1
20260906051503 83 152 1.0 3.0 0.00 0.00 0.00 74 997.3
20260906051003 83 137 1.0 2.0 0.00 0.00 0.00 74 997.1
20260906050002 83 149 1.0 3.0 0.00 0.00 0.00 73 997.5
20260906045503 83 105 1.0 3.0 0.00 0.00 0.00 73 997.3
20260906045003 83 172 2.0 3.0 0.00 0.00 0.00 73 997.4
20260906044502 83 139 2.0 5.0 0.00 0.00 0.00 73 997.3
20260906044003 83 121 1.0 5.0 0.00 0.00 0.00 73 997.3
20260906043003 83 137 2.0 3.0 0.00 0.00 0.00 72 997.2
20260906042502 83 164 2.0 5.0 0.00 0.00 0.00 72 997.2
20260906042003 84 139 1.0 5.0 0.00 0.00 0.00 71 997.2
20260906041503 84 179 2.0 5.0 0.00 0.00 0.00 71 997.2
20260906041002 84 174 2.0 7.0 0.00 0.00 0.00 71 997.0
20260906040503 84 186 3.0 5.0 0.00 0.00 0.00 70 997.1
20260906040002 84 106 2.0 3.0 0.00 0.00 0.00 70 997.2
20260906035503 85 85 2.0 5.0 0.00 0.00 0.00 69 997.2
20260906035003 85 137 2.0 7.0 0.00 0.00 0.00 69 997.1
20260906034503 85 148 2.0 7.0 0.00 0.00 0.00 68 997.2
20260906034003 85 184 3.0 7.0 0.00 0.00 0.00 68 997.2
20260906033003 85 149 2.0 6.0 0.00 0.00 0.00 67 997.2
20260906032502 85 154 3.0 6.0 0.00 0.00 0.00 67 997.0
20260906032003 85 148 1.0 5.0 0.00 0.00 0.00 66 997.0
20260906031502 86 70 2.0 3.0 0.00 0.00 0.00 65 996.8
20260906031003 86 152 2.0 6.0 0.00 0.00 0.00 65 996.8
20260906030502 86 153 3.0 6.0 0.00 0.00 0.00 65 996.9
20260906030003 86 26 3.0 6.0 0.00 0.00 0.00 64 996.8
20260906025002 87 93 2.0 5.0 0.00 0.00 0.00 63 996.5
20260906024503 87 34 3.0 9.0 0.00 0.00 0.00 62 996.4
20260906024002 87 62 4.0 9.0 0.00 0.00 0.00 61 996.4
20260906023003 87 115 2.0 5.0 0.00 0.00 0.00 60 996.2
20260906022503 87 87 2.0 5.0 0.00 0.00 0.00 60 996.0
20260906022003 88 125 1.0 10.0 0.00 0.00 0.00 60 995.9
20260906021503 88 129 2.0 5.0 0.00 0.00 0.00 60 995.8
20260906021003 88 88 2.0 5.0 0.00 0.00 0.00 59 995.6
20260906020003 89 96 2.0 5.0 0.00 0.00 0.00 59 995.7
20260906015503 89 89 2.0 7.0 0.00 0.00 0.00 58 995.5
20260906015004 89 184 4.0 7.0 0.00 0.00 0.00 58 995.5
20260906014504 89 174 3.0 6.0 0.00 0.00 0.00 57 995.5
20260906014003 90 122 2.0 6.0 0.00 0.00 0.00 57 995.2
20260906013503 90 130 3.0 6.0 0.00 0.00 0.00 56 995.1
20260906013003 90 105 3.0 5.0 0.00 0.00 0.00 56 995.0
20260906012003 91 109 2.0 8.0 0.00 0.00 0.00 55 994.9
20260906011503 91 122 3.0 6.0 0.00 0.00 0.00 56 995.0
20260906011003 91 168 2.0 6.0 0.00 0.00 0.00 55 995.0
20260906010503 91 170 5.0 7.0 0.00 0.00 0.00 55 995.0
20260906010003 91 107 3.0 6.0 0.00 0.00 0.00 54 995.0
20260906005003 92 117 2.0 5.0 0.00 0.00 0.00 54 994.9
20260906004502 92 67 3.0 7.0 0.00 0.00 0.00 53 995.0
20260906004003 92 67 3.0 7.0 0.00 0.00 0.00 53 995.2
20260906003503 93 184 3.0 6.0 0.00 0.00 0.00 52 994.9
20260906003003 93 152 2.0 9.0 0.00 0.00 0.00 51 994.9
20260906002002 95 174 2.0 6.0 0.00 0.00 0.00 46 994.9
20260906001503 95 130 2.0 2.0 0.00 0.00 0.00 44 995.1
20260906001003 95 156 1.0 3.0 0.00 0.00 0.00 44 994.7
20260905235503 96 126 2.0 5.0 0.00 0.00 0.00 45 994.7
20260905235003 96 109 1.0 2.0 0.00 0.00 0.00 44 994.7
20260905234503 96 114 1.0 5.0 0.00 0.00 0.00 43 994.6
20260905234003 97 116 1.0 5.0 0.00 0.00 0.00 43 994.6
20260905233503 97 128 2.0 6.0 0.00 0.00 0.00 43 994.5
20260905233003 97 130 3.0 6.0 0.00 0.00 0.00 43 994.5
20260905232503 97 162 2.0 3.0 0.00 0.00 0.00 42 994.6
20260905232003 97 187 3.0 5.0 0.00 0.00 0.00 42 994.7
20260905231502 97 199 3.0 7.0 0.00 0.00 0.00 41 994.8
20260905231003 97 180 5.0 7.0 0.00 0.00 0.00 41 994.9
20260905230502 98 173 1.0 3.0 0.00 0.00 0.00 40 994.6
20260905225503 98 71 1.0 5.0 0.00 0.00 0.00 40 994.8
20260905224503 98 115 1.0 3.0 0.00 0.00 0.00 39 994.7
20260905223503 99 142 2.0 5.0 0.00 0.00 0.00 39 994.7
20260905223003 99 99 2.0 6.0 0.00 0.00 0.00 40 994.5
20260905222502 100 193 2.0 3.0 0.00 0.00 0.00 39 994.7
20260905222003 99 124 2.0 3.0 0.00 0.00 0.00 39 994.9
20260905221504 98 201 1.0 3.0 0.00 0.00 0.00 40 994.9
20260905221002 98 196 2.0 5.0 0.00 0.00 0.00 39 994.8
20260905220503 98 75 3.0 3.0 0.00 0.00 0.00 39 994.7
20260905215502 98 207 5.0 6.0 0.00 0.00 0.00 38 994.8
20260905214503 98 83 1.0 3.0 0.00 0.00 0.00 39 994.9
20260905214003 98 130 2.0 7.0 0.00 0.00 0.00 41 995.0
20260905213502 98 182 2.0 5.0 0.00 0.00 0.00 41 995.1
20260905213003 97 165 1.0 3.0 0.00 0.00 0.00 40 994.9
20260905212503 97 82 1.0 3.0 0.00 0.00 0.00 42 995.2
20260905212002 96 98 1.0 2.0 0.00 0.00 0.00 43 995.1
20260905211003 95 127 2.0 6.0 0.00 0.00 0.00 44 995.4
20260905210503 95 140 3.0 7.0 0.00 0.00 0.00 44 995.3
20260905210003 96 198 3.0 7.0 0.00 0.00 0.00 43 995.3
20260905205502 96 177 3.0 8.0 0.00 0.00 0.00 43 995.5
20260905205003 98 161 3.0 5.0 0.00 0.00 0.00 42 995.6
20260905204503 98 131 0.0 6.0 0.00 0.00 0.00 41 995.6
20260905204003 99 76 3.0 6.0 0.00 0.00 0.00 41 995.7
20260905203003 98 137 1.0 3.0 0.00 0.00 0.00 42 995.7
20260905202503 99 128 1.0 2.0 0.00 0.00 0.00 41 995.8
20260905202003 98 115 1.0 5.0 0.00 0.00 0.00 41 995.9
20260905201503 100 167 2.0 3.0 0.00 0.00 0.00 41 996.0
20260905200503 98 167 2.0 6.0 0.00 0.00 0.00 43 996.0
20260905200002 98 157 2.0 6.0 0.00 0.00 0.00 43 996.3
20260905195003 97 134 2.0 3.0 0.00 0.00 0.00 44 996.6
20260905194503 97 62 2.0 3.0 0.00 0.00 0.00 45 996.4
20260905194003 96 140 2.0 6.0 0.00 0.00 0.00 45 996.6
20260905193503 98 190 5.0 6.0 0.00 0.00 0.00 43 996.6
20260905193003 97 170 3.0 6.0 0.00 0.00 0.00 43 996.7
20260905192002 97 116 2.0 2.0 0.00 0.00 0.00 44 996.9
20260905191503 95 71 1.0 2.0 0.00 0.00 0.00 47 997.0
20260905191003 94 85 2.0 5.0 0.00 0.00 0.00 49 997.1
20260905190002 95 156 2.0 5.0 0.00 0.00 0.00 47 997.3
20260905185503 96 201 2.0 3.0 0.00 0.00 0.00 44 997.3
20260905185003 94 118 2.0 8.0 0.00 0.00 0.00 46 997.4
20260905184503 94 192 3.0 7.0 0.00 0.00 0.00 49 997.5
20260905183503 95 290 6.0 7.0 0.00 0.00 0.00 48 997.6
20260905183003 96 243 2.0 8.0 0.00 0.00 0.00 48 997.7
20260905182503 95 184 1.0 6.0 0.00 0.00 0.00 46 997.9
20260905182003 95 176 3.0 8.0 0.00 0.00 0.00 47 997.9
20260905181503 95 185 6.0 8.0 0.00 0.00 0.00 48 997.9
20260905181003 95 180 3.0 6.0 0.00 0.00 0.00 47 998.1
20260905180503 95 130 2.0 8.0 0.00 0.00 0.00 47 998.2
20260905180003 94 165 3.0 8.0 0.00 0.00 0.00 48 998.4
20260905175503 92 108 0.0 5.0 0.00 0.00 0.00 51 998.6
20260905175002 94 254 2.0 6.0 0.00 0.00 0.00 48 998.6
20260905174503 94 209 4.0 8.0 0.00 0.00 0.00 50 998.5
20260905173503 94 162 1.0 2.0 0.00 0.00 0.00 52 998.8
20260905173003 95 156 2.0 5.0 0.00 0.00 0.00 50 998.8
20260905172003 94 177 5.0 8.0 0.00 0.00 0.00 49 998.7
20260905171504 93 201 6.0 8.0 0.00 0.00 0.00 47 998.8
20260905171002 93 114 1.0 2.0 0.00 0.00 0.00 51 998.7
20260905170503 93 156 3.0 6.0 0.00 0.00 0.00 56 998.8
20260905164503 90 139 2.0 6.0 0.00 0.00 0.00 61 999.1
20260905164003 90 215 3.0 5.0 0.00 0.00 0.00 61 999.1
20260905163502 90 176 3.0 5.0 0.00 0.00 0.00 59 999.0
20260905163003 90 309 3.0 8.0 0.00 0.00 0.00 59 999.2
20260905162503 89 182 3.0 7.0 0.00 0.00 0.00 61 999.1
20260905162003 90 175 5.0 7.0 0.00 0.00 0.00 62 998.9
20260905161503 90 272 2.0 3.0 0.00 0.00 0.00 60 999.0
20260905161003 89 198 4.0 9.0 0.00 0.00 0.00 59 999.1
20260905160503 89 253 3.0 9.0 0.00 0.00 0.00 61 999.1
20260905160003 90 153 3.0 8.0 0.00 0.00 0.00 61 998.9
20260905155502 89 181 2.0 6.0 0.00 0.00 0.00 63 998.8
20260905155003 88 273 3.0 6.0 0.00 0.00 0.00 66 998.8
20260905154502 88 172 4.0 8.0 0.00 0.00 0.00 65 998.9
20260905154002 88 238 3.0 8.0 0.00 0.00 0.00 66 998.8
20260905153503 88 173 5.0 8.0 0.00 0.00 0.00 67 999.0
20260905153003 88 150 3.0 6.0 0.00 0.00 0.00 67 999.0
20260905152503 87 114 1.0 5.0 0.00 0.00 0.00 70 999.0
20260905152003 87 100 1.0 6.0 0.00 0.00 0.00 71 998.8
20260905151503 86 256 5.0 6.0 0.00 0.00 0.00 72 998.9
20260905151002 86 241 3.0 6.0 0.00 0.00 0.00 72 998.9
20260905150503 85 220 3.0 6.0 0.00 0.00 0.00 74 999.0
20260905150003 85 253 2.0 7.0 0.00 0.00 0.00 74 999.1
20260905145502 85 132 1.0 5.0 0.00 0.00 0.00 76 998.9
20260905145003 85 274 2.0 6.0 0.00 0.00 0.00 76 999.0
20260905144503 85 165 3.0 7.0 0.00 0.00 0.00 77 999.0
20260905144003 84 256 4.0 7.0 0.00 0.00 0.00 79 999.0
20260905143503 83 228 2.0 5.0 0.00 0.00 0.00 81 998.8